GW0912 Weather Reports


time (UTC)temp
C
wind
direction
speed
KPH
gust
KPH
rain 1hr
cm
rain 24hr
cm
rain mn
cm
humidity
%
barometer
mb
20260506165223 28 270 1.6 8.0 0.00 0.00 0.00 65 1019.1
20260506164720 28 225 3.2 11.3 0.00 0.00 0.00 63 1019.2
20260506164217 29 83 0.0 9.7 0.00 0.00 0.00 63 1019.3
20260506163714 29 202 4.8 4.8 0.00 0.00 0.00 63 1019.1
20260506163208 28 249 0.0 11.3 0.00 0.00 0.00 62 1019.1
20260506162705 29 0 0.0 3.2 0.00 0.00 0.00 63 1019.1
20260506162202 28 262 1.6 4.8 0.00 0.00 0.00 64 1019.2
20260506161659 28 279 0.0 8.0 0.00 0.00 0.00 64 1019.2
20260506161156 27 26 1.6 6.4 0.00 0.00 0.00 65 1019.4
20260506160654 27 157 0.0 9.7 0.00 0.00 0.00 65 1019.5
20260506160151 27 167 6.4 6.4 0.00 0.00 0.00 67 1019.6
20260506155649 27 180 1.6 12.9 0.00 0.00 0.00 66 1019.5
20260506155146 27 240 4.8 12.9 0.00 0.00 0.00 66 1019.5
20260506153248 28 357 0.0 6.4 0.00 0.00 0.00 61 1019.7
20260506152745 28 307 4.8 6.4 0.00 0.00 0.00 62 1019.5
20260506152242 27 198 3.2 6.4 0.00 0.00 0.00 63 1019.5
20260506151741 27 264 4.8 4.8 0.00 0.00 0.00 62 1019.5
20260506151237 27 255 1.6 12.9 0.00 0.00 0.00 63 1019.7
20260506150734 27 239 3.2 8.0 0.00 0.00 0.00 61 1019.6
20260506150231 27 214 3.2 11.3 0.00 0.00 0.00 61 1019.7
20260506145728 27 144 3.2 9.7 0.00 0.00 0.00 61 1019.5
20260506145224 27 201 9.7 9.7 0.00 0.00 0.00 61 1019.7
20260506144722 26 90 0.0 12.9 0.00 0.00 0.00 63 1019.4
20260506144219 27 125 3.2 6.4 0.00 0.00 0.00 60 1019.6
20260506143716 27 220 14.5 17.7 0.00 0.00 0.00 58 1019.3
20260506143214 27 315 6.4 8.0 0.00 0.00 0.00 61 1019.3
20260506142712 27 257 4.8 9.7 0.00 0.00 0.00 64 1019.1
20260506142210 26 98 0.0 9.7 0.00 0.00 0.00 64 1019.2
20260506141708 26 209 11.3 11.3 0.00 0.00 0.00 63 1019.3
20260506141206 26 203 1.6 8.0 0.00 0.00 0.00 64 1019.3
20260506140703 25 124 0.0 6.4 0.00 0.00 0.00 66 1019.3
20260506140200 26 263 1.6 4.8 0.00 0.00 0.00 66 1019.5
20260506135657 26 216 3.2 4.8 0.00 0.00 0.00 66 1019.3
20260506135153 25 243 3.2 9.7 0.00 0.00 0.00 68 1019.2
20260506134650 25 251 3.2 11.3 0.00 0.00 0.00 67 1019.0
20260506134146 25 220 4.8 12.9 0.00 0.00 0.00 69 1019.2
20260506133643 25 99 3.2 6.4 0.00 0.00 0.00 70 1019.1
20260506133140 25 245 8.0 11.3 0.00 0.00 0.00 69 1019.1
20260506132637 25 65 3.2 9.7 0.00 0.00 0.00 69 1019.2
20260506132134 25 209 8.0 9.7 0.00 0.00 0.00 70 1019.3
20260506131631 25 210 4.8 4.8 0.00 0.00 0.00 72 1019.0
20260506131127 24 74 3.2 8.0 0.00 0.00 0.00 73 1019.1
20260506130624 24 162 3.2 9.7 0.00 0.00 0.00 74 1018.9
20260506130122 24 251 4.8 8.0 0.00 0.00 0.00 75 1019.1
20260506125620 25 337 1.6 3.2 0.00 0.00 0.00 76 1019.2
20260506125117 24 246 0.0 4.8 0.00 0.00 0.00 77 1019.0
20260506124615 23 60 0.0 6.4 0.00 0.00 0.00 78 1019.1
20260506124113 23 246 4.8 9.7 0.00 0.00 0.00 79 1018.9
20260506123610 23 159 0.0 4.8 0.00 0.00 0.00 80 1018.6
20260506123109 22 209 0.0 8.0 0.00 0.00 0.00 81 1018.8
20260506122605 22 234 1.6 6.4 0.00 0.00 0.00 83 1018.9
20260506122103 21 220 3.2 6.4 0.00 0.00 0.00 85 1019.0
20260506121600 21 90 0.0 4.8 0.00 0.00 0.00 86 1018.7
20260506121056 21 213 4.8 4.8 0.00 0.00 0.00 87 1018.8
20260506120555 21 210 4.8 4.8 0.00 0.00 0.00 87 1018.9
20260506120051 20 84 3.2 6.4 0.00 0.00 0.00 88 1018.9
20260506115549 20 233 3.2 3.2 0.00 0.00 0.00 89 1018.8
20260506115048 20 208 0.0 8.0 0.00 0.00 0.00 89 1018.8
20260506114545 20 180 0.0 3.2 0.00 0.00 0.00 91 1018.7
20260506114043 20 81 0.0 0.0 0.00 0.00 0.00 92 1018.8
20260506113541 19 6 0.0 1.6 0.00 0.00 0.00 93 1018.7
20260506113038 18 105 0.0 4.8 0.00 0.00 0.00 94 1018.8
20260506112534 18 99 0.0 3.2 0.00 0.00 0.00 94 1018.5
20260506112031 18 15 0.0 3.2 0.00 0.00 0.00 95 1018.5
20260506111530 18 96 3.2 4.8 0.00 0.00 0.00 95 1018.5
20260506111026 18 99 0.0 1.6 0.00 0.00 0.00 96 1018.6
20260506110524 17 270 0.0 0.0 0.00 0.00 0.00 96 1018.5
20260506110021 17 98 0.0 3.2 0.00 0.00 0.00 96 1018.3
20260506105517 17 90 0.0 0.0 0.00 0.00 0.00 95 1018.4
20260506105015 17 90 0.0 1.6 0.00 0.00 0.00 95 1018.7
20260506104513 17 90 0.0 0.0 0.00 0.00 0.00 95 1018.5
20260506104010 17 90 0.0 0.0 0.00 0.00 0.00 95 1018.5
20260506103507 17 63 3.2 3.2 0.00 0.00 0.00 95 1018.3
20260506103004 17 123 0.0 3.2 0.00 0.00 0.00 95 1018.3
20260506102502 17 84 0.0 0.0 0.00 0.00 0.00 95 1018.2
20260506101959 17 84 0.0 3.2 0.00 0.00 0.00 96 1018.2
20260506101455 17 60 1.6 3.2 0.00 0.00 0.00 96 1018.3
20260506100953 17 114 0.0 0.0 0.00 0.00 0.00 96 1018.3
20260506100451 17 98 0.0 0.0 0.00 0.00 0.00 96 1018.2
20260506095949 17 98 0.0 1.6 0.00 0.00 0.00 96 1018.1
20260506095447 17 81 0.0 0.0 0.00 0.00 0.00 96 1018.0
20260506094943 17 66 0.0 0.0 0.00 0.00 0.00 96 1018.0
20260506094442 16 66 0.0 1.6 0.00 0.00 0.00 96 1018.2
20260506093939 16 99 0.0 0.0 0.00 0.00 0.00 96 1018.0
20260506093437 16 106 0.0 0.0 0.00 0.00 0.00 95 1018.2
20260506092934 16 106 0.0 0.0 0.00 0.00 0.00 95 1018.2
20260506092432 16 106 0.0 0.0 0.00 0.00 0.00 95 1018.3
20260506091928 17 99 0.0 0.0 0.00 0.00 0.00 95 1018.2
20260506091427 17 90 0.0 0.0 0.00 0.00 0.00 95 1018.1
20260506090923 17 77 0.0 0.0 0.00 0.00 0.00 95 1018.3
20260506090421 17 82 0.0 0.0 0.00 0.00 0.00 95 1018.3
20260506085918 16 82 0.0 1.6 0.00 0.00 0.00 95 1018.2
20260506085414 16 270 0.0 0.0 0.00 0.00 0.00 94 1018.3
20260506084910 17 270 0.0 0.0 0.00 0.00 0.00 94 1018.4
20260506084408 17 270 0.0 0.0 0.00 0.00 0.00 94 1018.5
20260506083904 17 270 0.0 1.6 0.00 0.00 0.00 93 1018.5
20260506083401 17 261 0.0 1.6 0.00 0.00 0.00 92 1018.3
20260506082859 17 270 0.0 0.0 0.00 0.00 0.00 92 1018.3
20260506082355 17 270 0.0 0.0 0.00 0.00 0.00 91 1018.5
20260506081851 17 270 0.0 1.6 0.00 0.00 0.00 91 1018.4
20260506081350 18 82 0.0 0.0 0.00 0.00 0.00 90 1018.3
20260506080847 18 66 0.0 1.6 0.00 0.00 0.00 90 1018.3
20260506080343 18 66 0.0 1.6 0.00 0.00 0.00 89 1018.4
20260506073327 18 69 0.0 1.6 0.00 0.00 0.00 89 1018.3
20260506072824 18 270 0.0 1.6 0.00 0.00 0.00 89 1018.1
20260506072322 18 75 0.0 0.0 0.00 0.00 0.00 88 1018.0
20260506071819 18 60 0.0 3.2 0.00 0.00 0.00 88 1017.9
20260506071317 18 66 1.6 3.2 0.00 0.00 0.00 88 1018.0
20260506070814 18 90 0.0 4.8 0.00 0.00 0.00 89 1018.1
20260506070311 18 234 0.0 0.0 0.00 0.00 0.00 89 1018.1
20260506062248 18 0 0.0 1.6 0.00 0.00 0.00 92 1018.5
20260506061744 17 117 1.6 3.2 0.00 0.00 0.00 92 1018.3
20260506061241 17 82 0.0 1.6 0.00 0.00 0.00 92 1018.2
20260506060739 17 270 0.0 0.0 0.00 0.00 0.00 91 1018.3
20260506060237 17 263 1.6 1.6 0.00 0.00 0.00 90 1018.3
20260506051209 17 120 0.0 1.6 0.00 0.00 0.00 87 1019.0
20260506050707 18 98 0.0 1.6 0.00 0.00 0.00 87 1019.0
20260506050203 18 294 0.0 0.0 0.00 0.00 0.00 87 1019.0
20260506044655 18 0 0.0 1.6 0.00 0.00 0.00 86 1019.3
20260506044151 18 117 0.0 3.2 0.00 0.00 0.00 87 1019.5
20260506043649 17 257 0.0 1.6 0.00 0.00 0.00 87 1019.4
20260506043146 17 114 0.0 1.6 0.00 0.00 0.00 88 1019.1
20260506042646 17 98 0.0 0.0 0.00 0.00 0.00 88 1019.3
20260506042143 17 71 0.0 0.0 0.00 0.00 0.00 89 1019.5
20260506041641 17 270 0.0 0.0 0.00 0.00 0.00 89 1019.3
20260506041137 17 270 0.0 0.0 0.00 0.00 0.00 89 1019.3
20260506040635 17 270 0.0 0.0 0.00 0.00 0.00 89 1019.3
20260506040132 17 262 0.0 0.0 0.00 0.00 0.00 88 1019.2
20260506035629 17 262 0.0 1.6 0.00 0.00 0.00 87 1019.5
20260506035125 17 263 0.0 1.6 0.00 0.00 0.00 87 1019.3
20260506034623 17 270 0.0 0.0 0.00 0.00 0.00 85 1019.2
20260506034120 17 270 0.0 0.0 0.00 0.00 0.00 84 1019.3
20260506033617 18 270 0.0 0.0 0.00 0.00 0.00 83 1019.0
20260506033114 18 132 0.0 3.2 0.00 0.00 0.00 83 1019.2
20260506032611 18 90 0.0 0.0 0.00 0.00 0.00 82 1019.2
20260506032108 18 95 3.2 3.2 0.00 0.00 0.00 81 1019.1
20260506031605 18 255 0.0 3.2 0.00 0.00 0.00 80 1019.1
20260506031102 18 103 1.6 4.8 0.00 0.00 0.00 80 1019.3
20260506030601 18 90 0.0 3.2 0.00 0.00 0.00 81 1019.1
20260506030057 18 97 0.0 4.8 0.00 0.00 0.00 81 1019.2
20260506025554 18 63 0.0 1.6 0.00 0.00 0.00 82 1019.2
20260506025050 18 111 0.0 3.2 0.00 0.00 0.00 81 1019.3
20260506024548 18 82 0.0 3.2 0.00 0.00 0.00 83 1019.4
20260506024044 18 98 0.0 0.0 0.00 0.00 0.00 82 1019.6
20260506023539 18 98 0.0 1.6 0.00 0.00 0.00 80 1019.7
20260506023037 18 120 3.2 3.2 0.00 0.00 0.00 80 1019.6
20260506022535 18 124 0.0 3.2 0.00 0.00 0.00 81 1019.6
20260506022032 18 278 0.0 0.0 0.00 0.00 0.00 80 1019.7
20260506021530 18 278 0.0 1.6 0.00 0.00 0.00 79 1019.7
20260506021027 18 270 0.0 0.0 0.00 0.00 0.00 77 1019.4
20260506020524 19 120 0.0 3.2 0.00 0.00 0.00 77 1019.4
20260506020022 19 94 3.2 3.2 0.00 0.00 0.00 76 1019.4
20260506015519 19 283 0.0 4.8 0.00 0.00 0.00 76 1019.4
20260506015016 19 125 0.0 4.8 0.00 0.00 0.00 75 1019.3
20260506014513 19 90 1.6 3.2 0.00 0.00 0.00 75 1019.2
20260506014009 19 94 0.0 6.4 0.00 0.00 0.00 75 1019.0
20260506013507 20 123 3.2 4.8 0.00 0.00 0.00 75 1019.1
20260506013004 20 90 3.2 4.8 0.00 0.00 0.00 74 1019.0
20260506012459 20 102 3.2 6.4 0.00 0.00 0.00 75 1018.9
20260506011957 19 352 0.0 6.4 0.00 0.00 0.00 76 1019.2
20260506011454 19 123 0.0 4.8 0.00 0.00 0.00 77 1019.3
20260506010950 19 285 0.0 1.6 0.00 0.00 0.00 77 1019.4
20260506010450 19 90 0.0 3.2 0.00 0.00 0.00 76 1019.2
20260506005945 20 90 3.2 3.2 0.00 0.00 0.00 75 1019.2
20260506005443 20 82 1.6 4.8 0.00 0.00 0.00 76 1018.8
20260506004938 20 90 3.2 4.8 0.00 0.00 0.00 76 1018.8
20260506004437 20 90 0.0 4.8 0.00 0.00 0.00 75 1018.8
20260506003932 20 90 3.2 6.4 0.00 0.00 0.00 75 1019.0
20260506003429 20 144 4.8 6.4 0.00 0.00 0.00 74 1019.2
20260506002925 20 83 0.0 4.8 0.00 0.00 0.00 74 1019.2
20260506002421 20 74 0.0 3.2 0.00 0.00 0.00 74 1019.0
20260506001917 20 69 1.6 6.4 0.00 0.00 0.00 73 1019.4
20260506001415 20 63 0.0 9.7 0.00 0.00 0.00 72 1019.2
20260506000912 20 114 6.4 9.7 0.00 0.00 0.00 72 1019.2
20260506000409 20 120 4.8 8.0 0.00 0.00 0.00 70 1019.3
20260505235906 21 54 0.0 3.2 0.00 0.00 0.00 70 1019.1
20260505235404 21 77 6.4 6.4 0.00 0.00 0.00 68 1019.1
20260505234900 21 102 3.2 9.7 0.00 0.00 0.00 67 1019.0
20260505234358 21 123 3.2 4.8 0.00 0.00 0.00 67 1018.9
20260505233854 21 90 0.0 6.4 0.00 0.00 0.00 67 1018.9
20260505233353 21 246 0.0 4.8 0.00 0.00 0.00 66 1018.9
20260505232850 21 93 4.8 9.7 0.00 0.00 0.00 65 1018.9
20260505232348 21 128 6.4 11.3 0.00 0.00 0.00 65 1019.0
20260505231844 21 117 8.0 16.1 0.00 0.00 0.00 64 1018.9
20260505231341 22 109 14.5 14.5 0.00 0.00 0.00 65 1019.0
20260505230839 22 348 0.0 8.0 0.00 0.00 0.00 65 1019.2
20260505230336 22 257 3.2 8.0 0.00 0.00 0.00 65 1019.0
20260505225833 22 254 0.0 6.4 0.00 0.00 0.00 65 1019.2
20260505225330 22 279 0.0 8.0 0.00 0.00 0.00 65 1019.1
20260505224825 22 25 0.0 4.8 0.00 0.00 0.00 63 1019.0
20260505224323 22 99 3.2 20.9 0.00 0.00 0.00 62 1019.1
20260505223820 22 110 8.0 12.9 0.00 0.00 0.00 63 1019.0
20260505223317 23 121 8.0 16.1 0.00 0.00 0.00 61 1018.9
20260505222813 23 52 8.0 8.0 0.00 0.00 0.00 61 1019.0
20260505222309 23 140 4.8 12.9 0.00 0.00 0.00 60 1019.3
20260505221807 23 270 1.6 6.4 0.00 0.00 0.00 60 1019.1
20260505221303 23 123 4.8 11.3 0.00 0.00 0.00 59 1019.1
20260505220800 23 101 4.8 11.3 0.00 0.00 0.00 59 1019.1
20260505220257 23 57 9.7 9.7 0.00 0.00 0.00 59 1019.2
20260505215755 24 127 4.8 8.0 0.00 0.00 0.00 58 1019.4
20260505215253 23 148 8.0 16.1 0.00 0.00 0.00 59 1019.3
20260505214750 23 106 6.4 9.7 0.00 0.00 0.00 61 1019.1
20260505214248 23 170 4.8 9.7 0.00 0.00 0.00 60 1019.3
20260505213745 23 140 3.2 16.1 0.00 0.00 0.00 60 1019.4
20260505213242 25 20 1.6 6.4 0.00 0.00 0.00 58 1019.4
20260505212738 24 168 3.2 14.5 0.00 0.00 0.00 59 1019.4
20260505212235 24 53 6.4 16.1 0.00 0.00 0.00 59 1019.4
20260505211732 24 66 4.8 12.9 0.00 0.00 0.00 59 1019.3
20260505211230 25 90 3.2 8.0 0.00 0.00 0.00 57 1019.3
20260505210726 25 281 4.8 11.3 0.00 0.00 0.00 57 1019.3
20260505210223 25 60 1.6 8.0 0.00 0.00 0.00 57 1019.3
20260505205720 25 90 6.4 11.3 0.00 0.00 0.00 55 1019.3
20260505205218 25 106 16.1 17.7 0.00 0.00 0.00 54 1019.4
20260505204714 25 95 0.0 9.7 0.00 0.00 0.00 56 1019.2
20260505204213 24 139 3.2 22.5 0.00 0.00 0.00 56 1019.1
20260505203709 25 94 8.0 12.9 0.00 0.00 0.00 54 1019.1
20260505203206 24 120 6.4 19.3 0.00 0.00 0.00 55 1019.2
20260505202702 25 129 8.0 12.9 0.00 0.00 0.00 57 1019.3
20260505202158 25 135 3.2 14.5 0.00 0.00 0.00 58 1019.4
20260505201654 24 35 0.0 19.3 0.00 0.00 0.00 58 1019.4
20260505201153 25 95 3.2 20.9 0.00 0.00 0.00 57 1019.3
20260505200651 25 74 4.8 14.5 0.00 0.00 0.00 58 1019.5
20260505200147 25 67 11.3 12.9 0.00 0.00 0.00 56 1019.5
20260505195643 25 270 6.4 12.9 0.00 0.00 0.00 54 1019.5
20260505195141 25 150 4.8 8.0 0.00 0.00 0.00 54 1019.8
20260505194638 25 221 3.2 12.9 0.00 0.00 0.00 55 1019.7
20260505194134 25 241 3.2 14.5 0.00 0.00 0.00 56 1020.0
20260505193630 25 195 1.6 12.9 0.00 0.00 0.00 56 1020.2
20260505193127 25 135 6.4 17.7 0.00 0.00 0.00 55 1020.4
20260505192626 25 203 0.0 16.1 0.00 0.00 0.00 56 1020.3
20260505192123 25 228 6.4 16.1 0.00 0.00 0.00 55 1020.5
20260505191622 26 100 8.0 14.5 0.00 0.00 0.00 54 1020.4
20260505191119 25 130 9.7 9.7 0.00 0.00 0.00 55 1020.5
20260505190615 25 180 0.0 16.1 0.00 0.00 0.00 56 1020.5
20260505190110 26 71 4.8 8.0 0.00 0.00 0.00 53 1020.6
20260505185607 24 99 4.8 12.9 0.00 0.00 0.00 56 1020.6
20260505185103 25 95 6.4 17.7 0.00 0.00 0.00 55 1020.7
20260505184600 25 256 11.3 14.5 0.00 0.00 0.00 54 1020.4
20260505184056 25 297 0.0 9.7 0.00 0.00 0.00 56 1020.4
20260505183553 25 274 4.8 22.5 0.00 0.00 0.00 53 1020.5
20260505183051 25 53 4.8 8.0 0.00 0.00 0.00 55 1020.1
20260505182547 25 82 3.2 19.3 0.00 0.00 0.00 54 1020.2
20260505182044 26 206 3.2 6.4 0.00 0.00 0.00 54 1020.4
20260505181541 25 117 0.0 9.7 0.00 0.00 0.00 59 1020.6
20260505181038 25 170 3.2 12.9 0.00 0.00 0.00 58 1020.3
20260505180533 25 109 1.6 16.1 0.00 0.00 0.00 60 1020.4
20260505180032 25 56 3.2 14.5 0.00 0.00 0.00 59 1020.2
20260505175532 25 265 3.2 8.0 0.00 0.00 0.00 59 1020.6
20260505175029 25 78 3.2 12.9 0.00 0.00 0.00 60 1020.3
20260505174526 25 48 0.0 8.0 0.00 0.00 0.00 60 1020.2
20260505174022 25 194 4.8 11.3 0.00 0.00 0.00 58 1020.1
20260505173519 25 287 0.0 8.0 0.00 0.00 0.00 59 1020.3
20260505173016 25 86 9.7 11.3 0.00 0.00 0.00 60 1020.5
20260505172514 25 211 4.8 11.3 0.00 0.00 0.00 60 1020.6
20260505172009 25 135 6.4 12.9 0.00 0.00 0.00 60 1020.8
20260505171505 24 154 0.0 11.3 0.00 0.00 0.00 61 1020.6
20260505171002 24 71 8.0 19.3 0.00 0.00 0.00 60 1020.5
20260505170458 25 192 1.6 11.3 0.00 0.00 0.00 60 1020.7
20260505165953 25 200 4.8 11.3 0.00 0.00 0.00 60 1020.8